Flag for Germany Weather past 2 weeks in Reutlingen, Baden-Württemberg, Germany

Now
52 °F

Clear.


Feels Like: 50 °F
Forecast: 37 / 65 °F
Wind: 6 mph from Northeast

Location: Stuttgart-Echterdingen

Current Time: Sep 23, 2014 at 9:02:02 PM

Latest Report: Sep 23, 2014 at 8:20 PM


Visibility: 10 mi

Pressure: 30.07 "Hg

Humidity: 72%

Dew point: 43 °F

Location of ReutlingenLocation

Historic Weather in Reutlingen — Graph

°F

Reutlingen temperature yesterday

Maximum temperature yesterday: 57 °F (at 3:20 PM)
Minimum temperature yesterday: 43 °F (at 11:20 PM)
Average temperature yesterday: 51 °F

Past Weeks' High & Low Weather Summary

 TemperatureHumidityPressure
High75 °F (Sep 17, 3:20 PM)100% (Sep 12, 3:20 PM)30.21 "Hg (Sep 12, 3:20 PM)
Low41 °F (Sep 23, 5:20 AM)52% (Sep 10, 6:20 PM)29.89 "Hg (Sep 17, 2:50 PM)
Average59 °F85%30.03 "Hg
* Reported Sep 8 7:20 PM — Sep 23 7:50 PM, Reutlingen, Weather by CustomWeather, © 2014

Note: Actual official high and low records may vary slightly from our data, if they occured in-between our weather recording intervals... More about our weather records

Advertising

Reutlingen weather history for previous 24 hours

 ConditionsComfort  
Time TempWeatherWind HumidityBarometerVisibility
7:50 PM
Sep 23
54 °FSunny.6 mph72%30.07 "Hg10 mi
7:20 PM54 °FSunny.7 mph72%30.07 "Hg10 mi
6:50 PM55 °FSunny.7 mph67%30.07 "Hg10 mi
6:20 PM57 °FSunny.9 mph63%30.07 "Hg10 mi
5:50 PM57 °FSunny.8 mph63%30.07 "Hg10 mi
5:20 PM57 °FSunny.6 mph63%30.07 "Hg10 mi
4:50 PM59 °FSunny.3 mph55%30.09 "Hg10 mi
4:20 PM59 °FSunny.6 mph59%30.09 "Hg10 mi
3:50 PM57 °FPassing clouds.6 mph59%30.09 "HgN/A
3:20 PM57 °FPassing clouds.6 mph59%30.12 "HgN/A
2:50 PM57 °FPassing clouds.2 mph59%30.12 "HgN/A
2:20 PM57 °FPassing clouds.3 mph59%30.15 "HgN/A
1:50 PM55 °FPassing clouds.3 mph63%30.15 "HgN/A
1:20 PM54 °FScattered clouds.3 mph63%30.18 "HgN/A
12:20 PM52 °FPartly sunny.1 mph77%30.18 "HgN/A
11:50 AM52 °FPartly sunny.3 mph77%30.18 "HgN/A
11:20 AM50 °FPartly sunny.3 mph82%30.21 "HgN/A
10:50 AM48 °FPartly sunny.3 mph82%30.21 "HgN/A
10:20 AM48 °FPartly sunny.1 mph87%30.21 "HgN/A
9:50 AM46 °FPartly sunny.1 mph93%30.21 "HgN/A
9:20 AM46 °FPartly sunny.2 mph87%30.18 "HgN/A
8:50 AM45 °FPartly sunny.2 mph87%30.18 "HgN/A
8:20 AM41 °FScattered clouds.1 mph100%30.18 "HgN/A
7:50 AM41 °FPassing clouds.1 mph93%30.18 "HgN/A
7:20 AM41 °FPassing clouds.1 mph93%30.18 "HgN/A
6:50 AM41 °FPassing clouds.2 mph93%30.18 "HgN/A
6:20 AM41 °FPassing clouds.2 mph100%30.18 "HgN/A
5:50 AM43 °FPassing clouds.1 mph93%30.18 "HgN/A
5:20 AM41 °FPassing clouds.3 mph93%30.15 "HgN/A
4:50 AM43 °FPartly cloudy.2 mph87%30.15 "HgN/A
4:20 AM45 °FPassing clouds.2 mph87%30.15 "HgN/A
3:50 AM43 °FPassing clouds.2 mph93%30.15 "HgN/A
3:20 AM43 °FPassing clouds.2 mph100%30.15 "HgN/A
2:50 AM43 °FPassing clouds.3 mph93%30.15 "HgN/A
2:20 AM45 °FPassing clouds.3 mph93%30.15 "HgN/A
1:50 AM43 °FPassing clouds.2 mph100%30.15 "HgN/A
1:20 AM43 °FPassing clouds.2 mph93%30.15 "HgN/A
12:50 AM45 °FPassing clouds.1 mph93%30.15 "HgN/A
12:20 AM45 °FPassing clouds.6 mph93%30.18 "HgN/A
11:50 PM
Sep 22
45 °FPassing clouds.5 mph93%30.18 "HgN/A
11:20 PM43 °FClear.6 mph93%30.18 "Hg10 mi
10:50 PM45 °FClear.3 mph93%30.18 "Hg10 mi
10:20 PM45 °FClear.3 mph93%30.18 "Hg10 mi
9:50 PM45 °FClear.3 mph93%30.18 "Hg10 mi
9:20 PM46 °FPassing clouds.5 mph87%30.15 "HgN/A
Weather by CustomWeather, © 2014

See weather overviewHow to use our weather pages